This demonstration page uses our WeatherBlox Daily Observations layout. Learn more.

40.92945, -100.16068

Hourly Observations for June 25, 2019

Temp ( °F °C ) Dew Point ( °F °C ) Humidity (%) Winds ( mph kmh ) Pressure ( in mb ) Visibility ( mi km ) Precip ( " mm )
12:15 am 00:15 Clear 60 15.5 55 13 85 85 SSE 3 6 29.71 1006 10 16.09344 0 0
12:35 am 00:35 Clear 58 14.4 54 12.4 88 88 Calm 29.71 1006 10 16.09344 0 0
12:55 am 00:55 Clear 57 13.7 55 12.9 95 95 Calm 29.77 1008 10 16.09344 0 0
1:15 am 01:15 Clear 58 14.2 56 13.4 95 95 Calm 29.77 1008 10 16.09344 0 0
1:35 am 01:35 Partly Cloudy 62 16.4 57 14 86 86 WNW 8 13 29.74 1007 10 16.09344 0 0
1:55 am 01:55 Clear 63 17.2 57 14.1 82 82 N 16 26 29.77 1008 10 16.09344 0 0
2:15 am 02:15 Clear 62 16.6 56 13.1 80 80 NNE 15 24 29.8 1009 10 16.09344 0 0
2:35 am 02:35 Clear 61 15.9 54 12.4 80 80 NNE 7 11 29.8 1009 10 16.09344 0 0
2:55 am 02:55 Clear 60 15.7 54 12 79 79 ESE 3 6 29.83 1010 10 16.09344 0 0
3:15 am 03:15 Clear 58 14.6 53 11.7 83 83 S 3 6 29.85 1011 10 16.09344 0 0
3:35 am 03:35 Clear 57 13.7 53 11.7 88 88 Calm 29.85 1011 10 16.09344 0 0
3:55 am 03:55 Clear 56 13.4 53 11.6 89 89 Calm 29.83 1010 10 16.09344 0 0
4:15 am 04:15 Clear 55 12.6 53 11.7 94 94 WSW 3 6 29.85 1011 10 16.09344 0 0
4:35 am 04:35 Clear 55 12.7 53 11.8 94 94 SSW 6 9 29.88 1012 10 16.09344 0 0
4:55 am 04:55 Clear 56 13.6 55 12.5 93 93 WSW 5 7 29.88 1012 10 16.09344 0 0
5:15 am 05:15 Clear 56 13.4 54 12.3 93 93 S 3 6 29.88 1012 10 16.09344 0 0
5:35 am 05:35 Clear 55 12.5 53 11.6 94 94 ESE 6 9 29.88 1012 10 16.09344 0 0
5:55 am 05:55 Clear 56 13.3 53 11.8 91 91 ENE 3 6 29.88 1012 10 16.09344 0 0
6:15 am 06:15 Sunny 53 11.5 52 11.1 97 97 E 3 6 29.91 1013 10 16.09344 0 0
6:35 am 06:35 Sunny 53 11.7 52 11.1 96 96 Calm 29.91 1013 10 16.09344 0 0
6:55 am 06:55 Sunny 55 12.9 53 11.9 94 94 SE 3 6 29.88 1012 10 16.09344 0 0
7:15 am 07:15 Sunny 57 13.8 55 12.5 92 92 NE 5 7 29.88 1012 10 16.09344 0 0
7:35 am 07:35 Sunny 58 14.7 56 13.4 92 92 Calm 29.88 1012 10 16.09344 0 0
7:55 am 07:55 Sunny 60 15.7 57 13.7 88 88 ENE 5 7 29.85 1011 10 16.09344 0 0
8:15 am 08:15 Sunny 62 16.8 57 14.1 84 84 ENE 8 13 29.85 1011 10 16.09344 0 0
8:35 am 08:35 Sunny 64 17.8 57 14.1 79 79 E 6 9 29.85 1011 10 16.09344 0 0
8:55 am 08:55 Sunny 66 18.7 57 13.9 74 74 E 10 17 29.85 1011 10 16.09344 0 0
9:15 am 09:15 Sunny 67 19.6 58 14.4 72 72 ENE 9 15 29.83 1010 10 16.09344 0 0
9:35 am 09:35 Sunny 69 20.5 58 14.6 69 69 E 9 15 29.85 1011 10 16.09344 0 0
9:55 am 09:55 Sunny 70 21.2 58 14.5 66 66 E 9 15 29.85 1011 10 16.09344 0 0
10:15 am 10:15 Sunny 71 21.7 58 14.6 64 64 E 9 15 29.85 1011 10 16.09344 0 0
10:35 am 10:35 Sunny 72 22.1 60 15.5 66 66 E 8 13 29.85 1011 10 16.09344 0 0
10:55 am 10:55 Sunny 72 22.4 60 15.8 66 66 E 10 17 29.85 1011 10 16.09344 0 0
11:15 am 11:15 Sunny 73 22.9 61 16 65 65 E 9 15 29.83 1010 10 16.09344 0 0
11:35 am 11:35 Sunny 74 23.2 61 16 64 64 E 7 11 29.83 1010 10 16.09344 0 0
11:55 am 11:55 Sunny 74 23.6 62 16.5 65 65 E 9 15 29.83 1010 10 16.09344 0 0
12:15 pm 12:15 Sunny 75 24.1 63 17 65 65 E 6 9 29.83 1010 10 16.09344 0 0
12:35 pm 12:35 Sunny 76 24.6 63 17.1 63 63 E 8 13 29.83 1010 10 16.09344 0 0
12:55 pm 12:55 Sunny 77 24.8 64 17.5 64 64 E 6 9 29.83 1010 10 16.09344 0 0
1:15 pm 13:15 Sunny 77 25.2 64 17.5 62 62 E 9 15 29.83 1010 10 16.09344 0 0
1:35 pm 13:35 Sunny 78 25.6 64 17.7 62 62 E 6 9 29.83 1010 10 16.09344 0 0
1:55 pm 13:55 Sunny 79 26 65 18.1 62 62 E 7 11 29.83 1010 10 16.09344 0 0
2:10 pm 14:10 Sunny 79 26.1 63 17.2 58 58 E 5 7 29.83 1010 10 16.09344 0 0
2:35 pm 14:35 Sunny 80 26.8 64 17.6 57 57 Calm 29.8 1009 10 16.09344 0 0
2:55 pm 14:55 Sunny 80 26.9 64 17.7 57 57 Calm 29.8 1009 10 16.09344 0 0
3:15 pm 15:15 Sunny 82 28 65 18.1 55 55 Calm 29.77 1008 10 16.09344 0 0
3:35 pm 15:35 Sunny 82 27.9 64 18 55 55 NE 5 7 29.77 1008 10 16.09344 0 0
3:55 pm 15:55 Sunny 83 28.6 64 17.9 52 52 Calm 29.77 1008 10 16.09344 0 0
4:15 pm 16:15 Sunny 84 28.9 65 18.2 52 52 Calm 29.77 1008 10 16.09344 0 0
4:35 pm 16:35 Sunny 84 29 62 16.8 48 48 Calm 29.77 1008 10 16.09344 0 0
4:55 pm 16:55 Sunny 85 29.6 64 17.8 49 49 Calm 29.77 1008 10 16.09344 0 0
5:15 pm 17:15 Sunny 85 29.5 62 16.5 45 45 Calm 29.71 1006 10 16.09344 0 0
5:35 pm 17:35 Sunny 85 29.5 63 17.2 48 48 S 3 6 29.71 1006 10 16.09344 0 0
5:55 pm 17:55 Sunny 84 29 62 16.7 47 47 Calm 29.74 1007 10 16.09344 0 0
6:15 pm 18:15 Sunny 85 29.6 61 16 44 44 Calm 29.71 1006 10 16.09344 0 0
6:35 pm 18:35 Sunny 84 28.7 64 17.8 52 52 ENE 3 6 29.74 1007 10 16.09344 0 0
6:55 pm 18:55 Sunny 83 28.3 63 17.2 51 51 ENE 3 6 29.74 1007 10 16.09344 0 0
7:15 pm 19:15 Sunny 78 25.8 67 19.2 67 67 NE 8 13 29.74 1007 10 16.09344 0 0
7:35 pm 19:35 Sunny 78 25.4 66 19 68 68 NE 10 17 29.77 1008 10 16.09344 0 0
7:55 pm 19:55 Sunny 76 24.6 67 19.2 72 72 ENE 8 13 29.8 1009 10 16.09344 0 0
8:15 pm 20:15 Sunny 75 24.1 67 19.5 76 76 ENE 8 13 29.8 1009 10 16.09344 0 0
8:35 pm 20:35 Sunny 74 23.1 66 18.9 77 77 ENE 8 13 29.8 1009 10 16.09344 0 0
8:55 pm 20:55 Sunny 74 23.2 66 18.8 76 76 E 10 17 29.83 1010 10 16.09344 0 0
9:15 pm 21:15 Clear 74 23.2 65 18.6 75 75 E 13 20 29.83 1010 10 16.09344 0 0
9:35 pm 21:35 Clear 72 22.1 63 17.1 73 73 ESE 9 15 29.85 1011 10 16.09344 0 0
9:55 pm 21:55 Clear 70 21 60 15.5 71 71 ESE 6 9 29.85 1011 10 16.09344 0 0
10:15 pm 22:15 Clear 67 19.7 59 15 74 74 E 6 9 29.85 1011 10 16.09344 0 0
10:35 pm 22:35 Clear 64 17.9 60 15.6 87 87 E 5 7 29.91 1013 10 16.09344 0 0
10:55 pm 22:55 Clear 63 17.3 60 15.5 89 89 ENE 5 7 29.91 1013 10 16.09344 0 0
11:15 pm 23:15 Clear 63 17.2 60 15.6 90 90 E 6 9 29.91 1013 10 16.09344 0 0
11:35 pm 23:35 Clear 65 18.2 60 15.3 83 83 E 8 13 29.91 1013 10 16.09344 0 0
11:55 pm 23:55 Clear 64 17.9 60 15.3 85 85 E 6 9 29.91 1013 10 16.09344 0 0

Powered by AerisWeather